sat.trackr.live / text

‹ back to catalog

STARLINK-37116

NORAD 68213 · 2026-053G

PAYLOAD ACTIVE UNKNOWN

§ Identity

Operator
Country
US
Launch date
2026-03-17
Launch site
AFWTR
Launch vehicle
Mass (kg)
RCS (m²)

Purposes: comms

External: N2YO · Heavens-Above · Gunter

§ Orbital elements

Epoch: 2026-09-18T21:18:45.951840Z

Period
93.91 min
Inclination
97.2859°
Eccentricity
0.0001860
Mean motion
15.33446393 rev/d
Perigee alt
464.3 km
Apogee alt
466.8 km
Semi-major
6,843.7 km
B*
4.6317e-4
RAAN
135.6479°
Arg perigee
95.6345°
Mean anomaly
264.5110°
Rev number
2,982

§ Raw data

STARLINK-371161 68213U 26053G   26261.88803185  .00014908  00000+0  46317-3 0  99992 68213  97.2859 135.6479 0001860  95.6345 264.5110 15.33446393 29825

JSON: /api/v1/satellites/68213 · /tle

For live sub-satellite position, see the globe view (requires WebGL).

§ Visibility from observer

Set your observer location to see the next 7 days of passes ≥ 10°. The values pass through the URL so the page stays shareable.

No JS? Fill the form by hand. The geolocation button needs JavaScript.